カタログに戻る

STARLINK-3784

運用中通信VLEO
NORAD 52275·PAYLOAD·🇺🇸 United States

打ち上げ Apr 21, 2022 から Cape Canaveral Space Force Station

Loading…

次のパス (今後24時間)

TLE

最新Source: CelesTrak SupGP

元期: Sep 15, 2026, 02:12 UTC

1 52275C 22041Q   26258.09215278  .00052902  00000+0  15633-2 0  2582
2 52275  53.1601 332.9008 0001196  93.1202 284.6153 15.34357592    12

AllMySatでSTARLINK-3784をリアルタイム追跡

Download on the App Store